Date String (YYYY-MM-DD hh:mm:ss) UTC,Instrument flags,Ambient pressure (hPa),Sample flow (lpm),Bypass flow (lpm),Sample temperature (°C),Ambient temperature (°C),ASC tube jacket temperature (°C),LED temperature (°C),Box temperature (°C),Sample RH (%),Span deviation,Mass concentration (μg/m³),Mass concentration (μg/m³),Mass concentration (μg/m³)
DateTimeUTC,F1_M11,P_M11,Q1_M11,Q2_M11,T1_M11,T2_M11,T3_M11,T4_M11,T5_M11,U1_M11,ZSPAN_M11,X2_M11,X0_M11,X1_M11
2021-12-23 17:00:00,,0818.7,5.01,0.00,26.2,25.5,00.0,35.0,28.0,11.8,0000.0,0000.28,0000.98,0000.17
2021-12-23 17:01:00,,0818.8,5.01,0.00,26.2,25.5,00.0,35.0,28.1,11.8,0000.0,0000.28,0001.01,0000.18
2021-12-23 17:02:00,,0818.8,4.99,0.00,26.2,25.5,00.0,35.0,28.1,11.8,0000.0,0000.28,0001.00,0000.18
2021-12-23 17:03:00,,0818.7,5.01,0.00,26.2,25.5,00.0,35.0,28.1,11.8,0000.0,0000.26,0000.90,0000.18
2021-12-23 17:04:00,,0818.7,4.99,0.00,26.3,25.6,00.0,35.1,28.1,11.8,0000.0,0000.25,0000.89,0000.18
2021-12-23 17:05:00,,0818.8,5.00,0.00,26.3,25.6,00.0,35.1,28.1,11.8,0000.0,0000.26,0000.83,0000.18
2021-12-23 17:06:00,,0818.9,5.02,0.00,26.3,25.6,00.0,35.1,28.1,11.8,0000.0,0000.28,0000.86,0000.18
2021-12-23 17:07:00,,0818.9,4.99,0.00,26.3,25.6,00.0,35.1,28.2,11.8,0000.0,0000.29,0000.91,0000.18
2021-12-23 17:08:00,,0818.9,5.00,0.00,26.3,25.6,00.0,35.1,28.2,11.8,0000.0,0000.34,0001.07,0000.19
2021-12-23 17:09:00,,0818.8,5.01,0.00,26.4,25.6,00.0,35.2,28.2,11.7,0000.0,0000.37,0001.24,0000.19
2021-12-23 17:10:00,,0818.8,5.01,0.00,26.4,25.7,00.0,35.2,28.2,11.7,0000.0,0000.39,0001.02,0000.19
2021-12-23 17:11:00,,0818.7,4.98,0.00,26.4,25.7,00.0,35.2,28.2,11.8,0000.0,0000.43,0001.32,0000.19
2021-12-23 17:12:00,,0818.7,5.01,0.00,26.4,25.7,00.0,35.2,28.3,11.7,0000.0,0000.46,0002.53,0000.19
2021-12-23 17:13:00,,0818.5,4.99,0.00,26.4,25.7,00.0,35.2,28.3,11.7,0000.0,0000.52,0002.76,0000.20
2021-12-23 17:14:00,,0818.5,5.01,0.00,26.5,25.7,00.0,35.3,28.3,11.7,0000.0,0000.55,0002.85,0000.20
2021-12-23 17:15:00,,0818.5,5.00,0.00,26.5,25.7,00.0,35.3,28.3,11.7,0000.0,0000.57,0002.92,0000.20
2021-12-23 17:16:00,,0818.4,5.00,0.00,26.5,25.8,00.0,35.3,28.3,11.7,0000.0,0000.57,0003.13,0000.20
2021-12-23 17:17:00,,0818.6,4.99,0.00,26.5,25.8,00.0,35.3,28.3,11.7,0000.0,0000.61,0004.33,0000.21
2021-12-23 17:18:00,,0818.8,5.01,0.00,26.5,25.8,00.0,35.3,28.3,11.7,0000.0,0000.64,0004.55,0000.21
2021-12-23 17:19:00,,0818.7,5.01,0.00,26.5,25.8,00.0,35.4,28.3,11.6,0000.0,0000.63,0004.54,0000.21
2021-12-23 17:20:00,,0818.5,4.99,0.00,26.6,25.8,00.0,35.4,28.4,11.6,0000.0,0000.60,0004.36,0000.21
2021-12-23 17:21:00,,0818.4,5.01,0.00,26.6,25.8,00.0,35.4,28.4,11.6,0000.0,0000.57,0004.29,0000.21
2021-12-23 17:22:00,,0818.3,4.99,0.00,26.6,25.8,00.0,35.4,28.4,11.6,0000.0,0000.55,0003.97,0000.21
2021-12-23 17:23:00,,0818.4,5.01,0.00,26.6,25.9,00.0,35.4,28.5,11.6,0000.0,0000.52,0002.96,0000.20
2021-12-23 17:24:00,,0818.4,4.99,0.00,26.6,25.9,00.0,35.5,28.5,11.6,0000.0,0000.46,0002.56,0000.19
2021-12-23 17:25:00,,0818.4,5.01,0.00,26.7,25.9,00.0,35.5,28.5,11.6,0000.0,0000.42,0002.44,0000.19
2021-12-23 17:26:00,,0818.3,4.99,0.00,26.7,25.9,00.0,35.5,28.5,11.6,0000.0,0000.40,0002.37,0000.18
2021-12-23 17:27:00,,0818.2,4.99,0.00,26.7,26.0,00.0,35.5,28.5,11.6,0000.0,0000.41,0002.40,0000.18
2021-12-23 17:28:00,,0818.1,5.00,0.00,26.7,25.9,00.0,35.5,28.5,11.7,0000.0,0000.38,0001.25,0000.18
2021-12-23 17:29:00,,0818.0,5.02,0.00,26.7,25.9,00.0,35.5,28.5,11.7,0000.0,0000.35,0000.95,0000.17
2021-12-23 17:30:00,,0818.1,4.98,0.00,26.7,25.9,00.0,35.6,28.5,11.6,0000.0,0000.32,0000.79,0000.17
2021-12-23 17:31:00,,0818.2,5.01,0.00,26.7,25.9,00.0,35.6,28.5,11.6,0000.0,0000.34,0000.86,0000.17
2021-12-23 17:32:00,,0818.3,4.99,0.00,26.7,25.9,00.0,35.6,28.5,11.6,0000.0,0000.35,0000.89,0000.17
2021-12-23 17:33:00,,0818.3,5.01,0.00,26.7,25.9,00.0,35.6,28.5,11.6,0000.0,0000.34,0000.87,0000.17
2021-12-23 17:34:00,,0818.2,4.98,0.00,26.7,25.9,00.0,35.6,28.5,11.8,0000.0,0000.31,0000.74,0000.17
2021-12-23 17:35:00,,0818.2,5.00,0.00,26.7,25.9,00.0,35.6,28.5,11.9,0000.0,0000.33,0000.80,0000.17
2021-12-23 17:36:00,,0818.0,5.00,0.00,26.7,25.9,00.0,35.6,28.5,12.0,0000.0,0000.35,0000.88,0000.17
2021-12-23 17:37:00,,0818.0,5.01,0.00,26.7,25.8,00.0,35.6,28.5,12.1,0000.0,0000.36,0000.94,0000.17
2021-12-23 17:38:00,,0817.9,4.99,0.00,26.7,25.8,00.0,35.6,28.4,12.1,0000.0,0000.33,0000.83,0000.16
2021-12-23 17:39:00,,0817.9,5.00,0.00,26.7,25.8,00.0,35.6,28.4,12.1,0000.0,0000.30,0000.66,0000.16
2021-12-23 17:40:00,,0818.0,5.00,0.00,26.7,25.8,00.0,35.6,28.4,12.1,0000.0,0000.30,0001.01,0000.15
2021-12-23 17:41:00,,0818.0,5.00,0.00,26.7,25.8,00.0,35.6,28.4,12.2,0000.0,0000.30,0001.14,0000.15
2021-12-23 17:42:00,,0817.9,4.99,0.00,26.7,25.7,00.0,35.6,28.4,12.2,0000.0,0000.27,0001.09,0000.15
2021-12-23 17:43:00,,0817.8,5.01,0.00,26.7,25.7,00.0,35.7,28.4,12.3,0000.0,0000.28,0001.11,0000.15
2021-12-23 17:44:00,,0817.9,5.00,0.00,26.7,25.7,00.0,35.7,28.3,12.3,0000.0,0000.28,0001.07,0000.15
2021-12-23 17:45:00,,0817.9,5.01,0.00,26.7,25.7,00.0,35.7,28.3,12.3,0000.0,0000.29,0001.17,0000.15
2021-12-23 17:46:00,,0817.8,5.00,0.00,26.7,25.6,00.0,35.7,28.3,12.4,0000.0,0000.31,0001.27,0000.15
2021-12-23 17:47:00,,0817.7,4.98,0.00,26.7,25.7,00.0,35.7,28.4,12.4,0000.0,0000.30,0001.27,0000.15
2021-12-23 17:48:00,,0817.7,5.01,0.00,26.6,25.7,00.0,35.7,28.3,12.4,0000.0,0000.31,0001.21,0000.15
2021-12-23 17:49:00,,0817.6,5.01,0.00,26.6,25.7,00.0,35.7,28.3,12.4,0000.0,0000.33,0001.38,0000.15
2021-12-23 17:50:00,,0817.7,5.00,0.00,26.6,25.7,00.0,35.7,28.3,12.5,0000.0,0000.34,0001.42,0000.16
2021-12-23 17:51:00,,0817.6,5.00,0.00,26.6,25.7,00.0,35.7,28.3,12.5,0000.0,0000.35,0001.12,0000.16
2021-12-23 17:52:00,,0817.4,5.01,0.00,26.6,25.7,00.0,35.7,28.3,12.6,0000.0,0000.35,0001.07,0000.16
2021-12-23 17:53:00,,0817.4,4.99,0.00,26.6,25.7,00.0,35.7,28.3,12.6,0000.0,0000.35,0001.05,0000.16
2021-12-23 17:54:00,,0817.4,5.01,0.00,26.6,25.7,00.0,35.6,28.3,12.6,0000.0,0000.36,0001.09,0000.17
2021-12-23 17:55:00,,0817.3,4.98,0.00,26.5,25.7,00.0,35.6,28.3,12.7,0000.0,0000.37,0001.18,0000.17
2021-12-23 17:56:00,,0817.3,5.02,0.00,26.5,25.7,00.0,35.6,28.2,12.7,0000.0,0000.35,0001.10,0000.17
2021-12-23 17:57:00,,0817.1,4.99,0.00,26.5,25.7,00.0,35.6,28.2,12.7,0000.0,0000.35,0001.03,0000.17
2021-12-23 17:58:00,,0817.2,5.01,0.00,26.5,25.6,00.0,35.6,28.2,12.8,0000.0,0000.36,0001.03,0000.18
2021-12-23 17:59:00,,0817.1,5.00,0.00,26.5,25.7,00.0,35.6,28.2,12.8,0000.0,0000.39,0001.13,0000.18
